Regional Weather Roundup
Issued by NWS Little Rock, AR

Home | Current Version | Previous Version | Text Only | Print | Product List | Glossary On
Versions: 1 2 3 4 5 6 7 8 9 10 11 12 13 14 15 16 17 18 19 20 21 22 23 24 25 26 27 28 29 30 31 32 33 34 35 36 37 38 39 40 41 42 43 44 45 46 47 48 49 50
000
ASUS44 KLZK 161205
RWRLZK

WEATHER ROUNDUP FOR ARKANSAS
NATIONAL WEATHER SERVICE LITTLE ROCK AR
700 AM CDT TUE SEP 16 2014

NOTE: "FAIR" INDICATES FEW OR NO CLOUDS BELOW 12,000 FEET WITH NO
SIGNIFICANT WEATHER AND/OR OBSTRUCTIONS TO VISIBILITY.

ARZ001-003-010-029-161300-
NORTHWEST ARKANSAS

CITY           SKY/WX    TMP DP  RH WIND       PRES   REMARKS
FAYETTEVILLE   CLOUDY    65  65 100 CALM      30.17S
6HR MIN TEMP:  64; 6HR MAX TEMP:  67;

FORT SMITH     CLOUDY    67  65  93 CALM      30.14R FOG
6HR MIN TEMP:  66; 6HR MAX TEMP:  69; 6HR PCP: TRACE;

HARRISON       CLOUDY    67  67 100 CALM      30.18R FOG
6HR MIN TEMP:  67; 6HR MAX TEMP:  70;

BENTONVILLE    CLOUDY    68  64  88 NE5       30.18R
6HR MIN TEMP:  68; 6HR MAX TEMP:  70;

ROGERS         CLOUDY    67  65  93 CALM      30.18R
6HR MIN TEMP:  67; 6HR MAX TEMP:  70; 6HR PCP: TRACE;

SILOAM SPGS    CLOUDY    70  64  83 CALM      30.18R
6HR MIN TEMP:  70; 6HR MAX TEMP:  70;

HIGHFILL       CLOUDY    68  67  96 N3        30.17R
6HR MIN TEMP:  68; 6HR MAX TEMP:  70; 6HR PCP: TRACE;

SPRINGDALE     CLOUDY    68  68 100 CALM      30.19R
$$

ARZ004-005-016-161300-
NORTH CENTRAL ARKANSAS

CITY           SKY/WX    TMP DP  RH WIND       PRES   REMARKS
BATESVILLE     CLOUDY    66  64  94 CALM      30.14S
6HR MIN TEMP:  66; 6HR MAX TEMP:  66;

FLIPPIN        CLOUDY    66  63  88 N6        30.17R
6HR MIN TEMP:  66; 6HR MAX TEMP:  68;

MTN HOME       CLOUDY    65  63  93 VRB3      30.16R
6HR MIN TEMP:  65; 6HR MAX TEMP:  69;

$$

ARZ040-041-161300-
WEST CENTRAL ARKANSAS

CITY           SKY/WX    TMP DP  RH WIND       PRES   REMARKS
MENA             N/A     70  68  94 CALM        N/A
MOUNT IDA      FOG       68  66  93 CALM      30.13R VSB 1
6HR MIN TEMP:  68; 6HR MAX TEMP:  70;

$$

ARZ009-017-025-026-028-161300-
NORTHEAST ARKANSAS

CITY           SKY/WX    TMP DP  RH WIND       PRES   REMARKS
CORNING          N/A     64  64 100 N8        30.16R
JONESBORO      CLOUDY    68  67  96 NE7       30.13R
6HR MIN TEMP:  66; 6HR MAX TEMP:  69;

NEWPORT        CLOUDY    68  67  96 NE9       30.14R
6HR MIN TEMP:  64; 6HR MAX TEMP:  68;

WALNUT RIDGE   CLOUDY    64  63  94 NE8       30.14R
6HR MIN TEMP:  57; 6HR MAX TEMP:  64;

BLYTHEVILLE    CLOUDY    66  65  96 N13       30.14R
6HR MIN TEMP:  63; 6HR MAX TEMP:  67;

$$

ARZ022-023-033-042-044-161300-
CENTRAL ARKANSAS

CITY           SKY/WX    TMP DP  RH WIND       PRES   REMARKS
LITTLE ROCK    MOCLDY    71  67  87 W5        30.13R
6HR MIN TEMP:  71; 6HR MAX TEMP:  73; 6HR PCP: TRACE;

N LITTLE ROCK    N/A     70  68  96 W5        30.13R
6HR MIN TEMP:  70; 6HR MAX TEMP:  71;

JACKSONVILLE   CLOUDY    69  68  95 SW3       30.12R
6HR MIN TEMP:  69; 6HR MAX TEMP:  70;

SEARCY         MOCLDY    68  67  96 NW5       30.14R
6HR MIN TEMP:  64; 6HR MAX TEMP:  68;

HOT SPRINGS    PTCLDY    69  67  93 CALM      30.13S
6HR MIN TEMP:  69; 6HR MAX TEMP:  71;

RUSSELLVILLE   MOCLDY    66  64  93 CALM      30.14R FOG
6HR MIN TEMP:  65; 6HR MAX TEMP:  70;

CLINTON        CLOUDY    64  64 100 CALM      30.15S FOG
$$

ARZ036-161300-
EAST ARKANSAS

CITY           SKY/WX    TMP DP  RH WIND       PRES   REMARKS
WEST MEMPHIS   FOG       63  63 100 CALM      30.11R VSB 3/4
6HR MIN TEMP:  63; 6HR MAX TEMP:  70;

$$

ARZ050-053-066-070-073-161300-
SOUTHWEST ARKANSAS

CITY           SKY/WX    TMP DP  RH WIND       PRES   REMARKS
ARKADELPHIA    FAIR      69  69 100 CALM      30.13R FOG
6HR MIN TEMP:  69; 6HR MAX TEMP:  70; 6HR PCP: TRACE;

CAMDEN         CLOUDY    68  66  94 CALM      30.11S FOG
TEXARKANA      CLOUDY    69  69 100 CALM      30.12S FOG
6HR MIN TEMP:  69; 6HR MAX TEMP:  71; 6HR PCP: TRACE;

EL DORADO      CLOUDY    69  68  96 CALM      30.11S
6HR MIN TEMP:  69; 6HR MAX TEMP:  71; 6HR PCP:  0.01;

DE QUEEN       CLOUDY    68  68 100 CALM      30.11S FOG
6HR MIN TEMP:  68; 6HR MAX TEMP:  70;

$$

ARZ056-057-069-161300-
SOUTHEAST ARKANSAS

CITY           SKY/WX    TMP DP  RH WIND       PRES   REMARKS
PINE BLUFF     MOCLDY    70  68  93 CALM      30.12S
6HR MIN TEMP:  69; 6HR MAX TEMP:  71; 6HR PCP:  0.01;

STUTTGART      MOCLDY    70  64  83 SW3       30.13R
6HR MIN TEMP:  70; 6HR MAX TEMP:  70;

MONTICELLO     CLOUDY    70  67  90 CALM      30.11S
6HR MIN TEMP:  70; 6HR MAX TEMP:  72; 6HR PCP: TRACE;


$$




USA.gov is the U.S. government's official web portal to all federal, state and local government web resources and services.